Fort Polk, LA

2:35 PM CDT on March 29, 2017 (GMT -0500)
Fort Polk

Weather History for KBKB - December, 2012

Change the Weather History Date:

Thursday, December 27, 2012

  Actual Average (KPOE) Record (KPOE)
Temperature  
Mean Temperature 38 °F -  
Max Temperature 48 °F 57 °F 80 °F (2015)
Min Temperature 28 °F 37 °F 23 °F (2010)
Degree Days  
Heating Degree Days 27    
Moisture  
Dew Point 32 °F    
Average Humidity 76    
Maximum Humidity 89    
Minimum Humidity 54    
Precipitation  
Precipitation 0.00 in - - ()
Sea Level Pressure  
Sea Level Pressure 30.14 in    
Wind  
Wind Speed 1 mph (SE)    
Max Wind Speed 6 mph    
Max Gust Speed -    
Visibility 9 miles    
Events      
Averages and records for this station are not official NWS values.
T = Trace of Precipitation, MM = Missing Value Source: NWS Daily Summary

Daily Weather History Graph

Daily Weather History Graph

Search for Another Location

Airport or City:

Trip Planner

Search our weather history database for the weather conditions in past years. The results will help you decide how hot, cold, wet, or windy it might be!

Date:

Astronomy

Dec. 27, 2012 Rise Set
Actual Time 7:08 AM CST 5:17 PM CST
Civil Twilight 6:41 AM CST 5:44 PM CST
Nautical Twilight 6:11 AM CST 6:14 PM CST
Astronomical Twilight 5:42 AM CST 6:43 PM CST
Moon 4:59 PM CST (12/27) 6:21 AM CST (12/27)
Length of Visible Light 11h 02m
Length of Day
10h 08m
Full, 100% of the Moon is Illuminated
Dec 27
Full
Dec 28
Full
Jan 4
Last Quarter
Jan 11
New
Jan 18
First Quarter

Hourly Weather History & Observations

Time (CST) Temp. Windchill Dew Point Humidity Pressure Visibility Wind Dir Wind Speed Gust Speed Precip Events Conditions
12:54 AM 30.0 °F - 27.0 °F 88% 30.21 in 6.0 mi Calm Calm - N/A   Clear
1:54 AM 30.0 °F - 27.0 °F 88% 30.19 in 9.0 mi Calm Calm - N/A   Clear
2:54 AM 30.0 °F - 27.0 °F 88% 30.20 in 7.0 mi Calm Calm - N/A   Clear
3:54 AM 28.9 °F - 26.1 °F 89% 30.20 in 7.0 mi Calm Calm - N/A   Clear
4:54 AM 28.0 °F - 25.0 °F 88% 30.20 in 8.0 mi Calm Calm - N/A   Clear
5:54 AM 28.0 °F - 25.0 °F 88% 30.21 in 9.0 mi Calm Calm - N/A   Clear
6:54 AM 28.0 °F - 25.0 °F 88% 30.21 in 9.0 mi Calm Calm - N/A   Clear
7:54 AM 30.0 °F - 27.0 °F 88% 30.23 in 8.0 mi Calm Calm - N/A   Clear
8:54 AM 34.0 °F - 30.9 °F 89% 30.24 in 9.0 mi Calm Calm - N/A   Clear
9:32 AM 35.6 °F 32.8 °F 32.0 °F 87% 30.14 in 10.0 mi Variable 3.5 mph - N/A   Partly Cloudy
9:54 AM 37.9 °F - 32.0 °F 79% 30.24 in 10.0 mi Calm Calm - N/A   Scattered Clouds
10:01 AM 37.4 °F 32.8 °F 32.0 °F 81% 30.14 in 10.0 mi SE 5.8 mph - N/A   Mostly Cloudy
10:23 AM 39.2 °F 37.0 °F 33.8 °F 81% 30.12 in 10.0 mi Variable 3.5 mph - N/A   Scattered Clouds
10:54 AM 41.0 °F 38.0 °F 33.1 °F 73% 30.22 in 10.0 mi Variable 4.6 mph - N/A   Clear
11:54 AM 45.0 °F 42.6 °F 33.1 °F 63% 30.18 in 10.0 mi SSE 4.6 mph - N/A   Clear
12:54 PM 46.9 °F - 32.0 °F 56% 30.14 in 10.0 mi Calm Calm - N/A   Clear
1:54 PM 48.9 °F - 33.1 °F 54% 30.12 in 10.0 mi Variable 3.5 mph - N/A   Mostly Cloudy
2:54 PM 48.9 °F - 34.0 °F 56% 30.09 in 10.0 mi Variable 3.5 mph - N/A   Overcast
3:54 PM 48.0 °F - 35.1 °F 61% 30.08 in 10.0 mi Variable 3.5 mph - N/A   Overcast
4:54 PM 46.0 °F - 36.0 °F 68% 30.08 in 10.0 mi Calm Calm - N/A   Overcast
5:54 PM 45.0 °F 42.6 °F 36.0 °F 71% 30.09 in 10.0 mi Variable 4.6 mph - N/A   Overcast
6:54 PM 44.1 °F 42.5 °F 36.0 °F 73% 30.07 in 10.0 mi Variable 3.5 mph - N/A   Overcast
7:54 PM 45.0 °F - 36.0 °F 71% 30.06 in 10.0 mi Calm Calm - N/A   Overcast
8:54 PM 45.0 °F 42.6 °F 37.0 °F 74% 30.05 in 10.0 mi ESE 4.6 mph - N/A   Overcast
9:54 PM 46.0 °F 44.8 °F 37.9 °F 73% 30.05 in 10.0 mi ESE 3.5 mph - 0.00 in   Overcast
10:54 PM 46.0 °F - 39.0 °F 76% 30.03 in 10.0 mi Calm Calm - N/A   Overcast
11:54 PM 48.0 °F - 39.9 °F 74% 30.01 in 10.0 mi Variable 3.5 mph - N/A   Overcast